TimeCAT,TemperatureF,Dew PointF,Humidity,Sea Level PressureIn,VisibilityMPH,Wind Direction,Wind SpeedMPH,Gust SpeedMPH,PrecipitationIn,Events,Conditions,WindDirDegrees,DateUTC
12:00 AM,78.8,62.6,57,30.01,-9999.0,Variable,1.2,-,N/A,,Clear,0,2013-03-01 22:00:00
1:00 AM,78.8,62.6,57,29.98,-9999.0,ESE,3.5,-,N/A,,Clear,120,2013-03-01 23:00:00
2:00 AM,78,62,48,,6,ESE,4.6,,,,Partly Cloudy,110,2013-03-02 00:00:00
2:00 AM,77.0,62.6,61,29.98,-9999.0,ESE,4.6,-,N/A,,Clear,110,2013-03-02 00:00:00
3:00 AM,77.0,62.6,61,30.01,-9999.0,ESE,10.4,-,N/A,,Clear,120,2013-03-02 01:00:00
4:00 AM,75.2,62.6,65,30.01,-9999.0,ESE,9.2,-,N/A,,Clear,120,2013-03-02 02:00:00
5:00 AM,73.4,62.6,69,30.04,-9999.0,SE,6.9,-,N/A,,Clear,130,2013-03-02 03:00:00
6:00 AM,71.6,62.6,73,30.04,-9999.0,ESE,8.1,-,N/A,,Clear,120,2013-03-02 04:00:00
7:00 AM,71.6,62.6,73,30.04,-9999.0,ESE,9.2,-,N/A,,Clear,120,2013-03-02 05:00:00
8:00 AM,72,64,68,,6,East,10.4,,,,Partly Cloudy,90,2013-03-02 06:00:00
8:00 AM,73.4,64.4,73,30.06,-9999.0,East,10.4,-,N/A,,Clear,90,2013-03-02 06:00:00
9:00 AM,75.2,64.4,69,30.06,-9999.0,East,11.5,-,N/A,,Clear,90,2013-03-02 07:00:00
10:00 AM,82.4,64.4,54,30.06,-9999.0,East,13.8,-,N/A,,Clear,90,2013-03-02 08:00:00
11:00 AM,86.0,64.4,48,30.06,-9999.0,East,10.4,-,N/A,,Clear,80,2013-03-02 09:00:00
1:00 PM,91.4,64.4,41,30.04,-9999.0,NE,8.1,-,N/A,,Clear,40,2013-03-02 11:00:00
2:00 PM,93,62,26,,6,NNW,6.9,,,,Partly Cloudy,340,2013-03-02 12:00:00
2:00 PM,93.2,62.6,36,30.01,6.2,NNW,6.9,-,N/A,,Partly Cloudy,340,2013-03-02 12:00:00
3:00 PM,95.0,64.4,36,29.98,6.2,East,3.5,-,N/A,,Scattered Clouds,80,2013-03-02 13:00:00
4:00 PM,95.0,62.6,34,29.95,6.2,NW,9.2,-,N/A,,Scattered Clouds,320,2013-03-02 14:00:00
5:00 PM,93.2,62.6,36,29.92,6.2,West,5.8,-,N/A,,Partly Cloudy,280,2013-03-02 15:00:00
6:00 PM,91.4,64.4,41,29.95,6.2,SSW,6.9,-,N/A,,Partly Cloudy,200,2013-03-02 16:00:00
7:00 PM,87.8,64.4,46,29.95,6.2,SE,4.6,-,N/A,,Partly Cloudy,140,2013-03-02 17:00:00
8:00 PM,83,66,46,,6,ESE,3.5,,,,Scattered Clouds,110,2013-03-02 18:00:00
8:00 PM,84.2,66.2,55,29.98,6.2,ESE,3.5,-,N/A,,Partly Cloudy,110,2013-03-02 18:00:00
10:00 PM,78.8,64.4,61,30.01,6.2,SE,6.9,-,N/A,,Partly Cloudy,140,2013-03-02 20:00:00
11:00 PM,78.8,64.4,61,30.04,6.2,Variable,2.3,-,N/A,,Partly Cloudy,0,2013-03-02 21:00:00